| time (UTC) | temp F | wind direction | speed MPH | gust MPH | rain 1hr in | rain 24hr in | rain mn in | humidity % | barometer mb |
| 20260904095104 | 86 | 113 | 1.0 | 4.0 | 0.00 | 0.00 | 0.00 | 49 | 743.1 |
| 20260904094106 | 86 | 113 | 1.0 | 4.0 | 0.00 | 0.00 | 0.00 | 49 | 1273.1 |
| 20260904093105 | 86 | 113 | 0.0 | 3.0 | 0.00 | 0.00 | 0.00 | 48 | 1119.1 |
| 20260904092105 | 85 | 113 | 0.0 | 3.0 | 0.00 | 0.00 | 0.00 | 49 | 479.5 |
| 20260904091542 | 86 | 113 | 0.0 | 6.0 | 0.00 | 0.00 | 0.00 | 48 | 887.4 |
| 20260904085543 | 85 | 113 | 0.0 | 2.0 | 0.00 | 0.00 | 0.00 | 50 | 1295.5 |
| 20260904084542 | 84 | 113 | 0.0 | 3.0 | 0.00 | 0.00 | 0.00 | 50 | 425.8 |
| 20260904083054 | 83 | 113 | 1.0 | 3.0 | 0.00 | 0.00 | 0.00 | 50 | 808.4 |
| 20260904082053 | 83 | 113 | 1.0 | 6.0 | 0.00 | 0.00 | 0.00 | 50 | 739.1 |
| 20260904081532 | 83 | 38 | 0.0 | 1.0 | 0.00 | 0.00 | 0.00 | 51 | 845.3 |
| 20260904080058 | 83 | 38 | 0.0 | 0.0 | 0.00 | 0.00 | 0.00 | 54 | 465.8 |
| 20260904075050 | 81 | 38 | 0.0 | 0.0 | 0.00 | 0.00 | 0.00 | 55 | 466.1 |
| 20260904074049 | 81 | 38 | 0.0 | 4.0 | 0.00 | 0.00 | 0.00 | 58 | 996.6 |
| 20260904073049 | 80 | 24 | 0.0 | 0.0 | 0.00 | 0.00 | 0.00 | 58 | 1084.9 |
| 20260904073023 | 79 | 24 | 0.0 | 0.0 | 0.00 | 0.00 | 0.00 | 61 | 833.9 |
| 20260904071051 | 78 | 24 | 0.0 | 3.0 | 0.00 | 0.00 | 0.00 | 62 | 1167.3 |
| 20260904070044 | 77 | 24 | 0.0 | 4.0 | 0.00 | 0.00 | 0.00 | 63 | 926.3 |
| 20260904065040 | 76 | 24 | 1.0 | 5.0 | 0.00 | 0.00 | 0.00 | 63 | 742.2 |
| 20260904064042 | 75 | 26 | 0.0 | 4.0 | 0.00 | 0.00 | 0.00 | 64 | 792.1 |
| 20260904063034 | 75 | 25 | 1.0 | 5.0 | 0.00 | 0.00 | 0.00 | 65 | 1098.9 |
| 20260904062040 | 74 | 24 | 1.0 | 4.0 | 0.00 | 0.00 | 0.00 | 66 | 488.3 |
| 20260904062010 | 73 | 24 | 0.0 | 4.0 | 0.00 | 0.00 | 0.00 | 68 | 418.9 |
| 20260904060033 | 73 | 24 | 0.0 | 3.0 | 0.00 | 0.00 | 0.00 | 68 | 574.1 |
| 20260904055034 | 72 | 24 | 0.0 | 0.0 | 0.00 | 0.00 | 0.00 | 70 | 667.3 |
| 20260904054953 | 72 | 24 | 0.0 | 0.0 | 0.00 | 0.00 | 0.00 | 70 | 879.8 |
| 20260904053033 | 71 | 24 | 0.0 | 0.0 | 0.00 | 0.00 | 0.00 | 71 | 1047.1 |
| 20260904052030 | 71 | 24 | 0.0 | 0.0 | 0.00 | 0.00 | 0.00 | 72 | 516.9 |
| 20260904051029 | 70 | 24 | 0.0 | 0.0 | 0.00 | 0.00 | 0.00 | 73 | 765.5 |
| 20260904050016 | 70 | 24 | 0.0 | 3.0 | 0.00 | 0.00 | 0.00 | 72 | 819.1 |
| 20260904045012 | 70 | 24 | 0.0 | 0.0 | 0.00 | 0.00 | 0.00 | 72 | 947.3 |
| 20260904044447 | 71 | 24 | 0.0 | 2.0 | 0.00 | 0.00 | 0.00 | 72 | 763.0 |
| 20260904043006 | 70 | 24 | 0.0 | 0.0 | 0.00 | 0.00 | 0.00 | 72 | 896.9 |
| 20260904042006 | 70 | 24 | 0.0 | 0.0 | 0.00 | 0.00 | 0.00 | 72 | 950.6 |
| 20260904041005 | 71 | 24 | 0.0 | 0.0 | 0.00 | 0.00 | 0.00 | 72 | 433.6 |
| 20260904040008 | 71 | 24 | 0.0 | 0.0 | 0.00 | 0.00 | 0.00 | 72 | 480.8 |
| 20260904035004 | 71 | 24 | 1.0 | 5.0 | 0.00 | 0.00 | 0.00 | 72 | 506.2 |
| 20260904034006 | 71 | 24 | 0.0 | 0.0 | 0.00 | 0.00 | 0.00 | 72 | 538.8 |
| 20260904033445 | 71 | 24 | 0.0 | 0.0 | 0.00 | 0.00 | 0.00 | 72 | 572.3 |
| 20260904032004 | 71 | 24 | 0.0 | 0.0 | 0.00 | 0.00 | 0.00 | 72 | 791.5 |
| 20260904031000 | 71 | 24 | 0.0 | 0.0 | 0.00 | 0.00 | 0.00 | 72 | 822.2 |
| 20260904030443 | 71 | 24 | 0.0 | 0.0 | 0.00 | 0.00 | 0.00 | 71 | 481.3 |
| 20260904024956 | 71 | 24 | 0.0 | 2.0 | 0.00 | 0.00 | 0.00 | 72 | 1096.2 |
| 20260904023954 | 71 | 24 | 0.0 | 3.0 | 0.00 | 0.00 | 0.00 | 72 | 567.6 |
| 20260904022956 | 72 | 24 | 0.0 | 2.0 | 0.00 | 0.00 | 0.00 | 71 | 832.9 |
| 20260904021948 | 72 | 24 | 1.0 | 4.0 | 0.00 | 0.00 | 0.00 | 71 | 539.2 |
| 20260904021431 | 72 | 22 | 1.0 | 5.0 | 0.00 | 0.00 | 0.00 | 71 | 730.2 |
| 20260904015946 | 72 | 22 | 0.0 | 5.0 | 0.00 | 0.00 | 0.00 | 71 | 791.3 |
| 20260904015427 | 72 | 22 | 1.0 | 4.0 | 0.00 | 0.00 | 0.00 | 71 | 549.2 |
| 20260904014419 | 72 | 21 | 1.0 | 5.0 | 0.00 | 0.00 | 0.00 | 71 | 428.4 |
| 20260904012934 | 72 | 21 | 0.0 | 0.0 | 0.00 | 0.00 | 0.00 | 71 | 489.4 |
| 20260904012415 | 72 | 21 | 0.0 | 0.0 | 0.00 | 0.00 | 0.00 | 70 | 1105.2 |
| 20260904010930 | 73 | 21 | 0.0 | 0.0 | 0.00 | 0.00 | 0.00 | 70 | 545.9 |
| 20260904010413 | 73 | 21 | 0.0 | 2.0 | 0.00 | 0.00 | 0.00 | 70 | 602.7 |
| 20260904004932 | 73 | 21 | 1.0 | 5.0 | 0.00 | 0.00 | 0.00 | 69 | 1154.2 |
| 20260904003930 | 73 | 22 | 0.0 | 1.0 | 0.00 | 0.00 | 0.00 | 69 | 751.1 |
| 20260904003410 | 73 | 22 | 1.0 | 4.0 | 0.00 | 0.00 | 0.00 | 69 | 571.8 |
| 20260904001933 | 73 | 22 | 0.0 | 3.0 | 0.00 | 0.00 | 0.00 | 69 | 666.1 |
| 20260904000931 | 73 | 22 | 0.0 | 1.0 | 0.00 | 0.00 | 0.00 | 69 | 1036.7 |
| 20260903235928 | 73 | 22 | 0.0 | 0.0 | 0.00 | 0.00 | 0.00 | 68 | 567.4 |
| 20260903234928 | 74 | 22 | 0.0 | 0.0 | 0.00 | 0.00 | 0.00 | 68 | 999.9 |
| 20260903233920 | 74 | 22 | 0.0 | 0.0 | 0.00 | 0.00 | 0.00 | 67 | 421.5 |
| 20260903232917 | 74 | 22 | 0.0 | 0.0 | 0.00 | 0.00 | 0.00 | 67 | 1244.4 |
| 20260903231918 | 74 | 22 | 0.0 | 0.0 | 0.00 | 0.00 | 0.00 | 66 | 497.2 |
| 20260903230914 | 74 | 22 | 0.0 | 0.0 | 0.00 | 0.00 | 0.00 | 66 | 645.7 |
| 20260903225911 | 74 | 21 | 0.0 | 0.0 | 0.00 | 0.00 | 0.00 | 66 | 1073.0 |
| 20260903224912 | 74 | 21 | 0.0 | 3.0 | 0.00 | 0.00 | 0.00 | 66 | 784.0 |
| 20260903223908 | 74 | 22 | 0.0 | 1.0 | 0.00 | 0.00 | 0.00 | 68 | 729.4 |
| 20260903222907 | 74 | 22 | 0.0 | 0.0 | 0.00 | 0.00 | 0.00 | 68 | 482.0 |
| 20260903221906 | 74 | 22 | 0.0 | 3.0 | 0.00 | 0.00 | 0.00 | 68 | 1027.9 |
| 20260903220909 | 74 | 22 | 0.0 | 0.0 | 0.00 | 0.00 | 0.00 | 68 | 1199.4 |
| 20260903220345 | 75 | 22 | 0.0 | 1.0 | 0.00 | 0.00 | 0.00 | 67 | 588.7 |
| 20260903214905 | 76 | 22 | 1.0 | 4.0 | 0.00 | 0.00 | 0.00 | 66 | 911.2 |
| 20260903213858 | 76 | 22 | 1.0 | 4.0 | 0.00 | 0.00 | 0.00 | 64 | 499.5 |
| 20260903212858 | 76 | 23 | 0.0 | 2.0 | 0.00 | 0.00 | 0.00 | 65 | 1197.1 |
| 20260903211852 | 75 | 23 | 0.0 | 0.0 | 0.00 | 0.00 | 0.00 | 67 | 972.7 |
| 20260903210853 | 76 | 23 | 0.0 | 0.0 | 0.00 | 0.00 | 0.00 | 65 | 1017.6 |
| 20260903205855 | 76 | 23 | 0.0 | 0.0 | 0.00 | 0.00 | 0.00 | 64 | 1184.0 |
| 20260903204855 | 77 | 23 | 1.0 | 5.0 | 0.00 | 0.00 | 0.00 | 63 | 1163.1 |
| 20260903203849 | 77 | 253 | 0.0 | 3.0 | 0.00 | 0.00 | 0.00 | 63 | 466.6 |
| 20260903202849 | 78 | 246 | 0.0 | 2.0 | 0.00 | 0.00 | 0.00 | 61 | 640.0 |
| 20260903201845 | 79 | 243 | 0.0 | 0.0 | 0.00 | 0.00 | 0.00 | 60 | 569.6 |
| 20260903200843 | 79 | 243 | 0.0 | 0.0 | 0.00 | 0.00 | 0.00 | 60 | 664.8 |
| 20260903195843 | 80 | 243 | 0.0 | 0.0 | 0.00 | 0.00 | 0.00 | 59 | 686.0 |
| 20260903194843 | 80 | 243 | 0.0 | 0.0 | 0.00 | 0.00 | 0.00 | 58 | 879.6 |
| 20260903193836 | 80 | 243 | 0.0 | 0.0 | 0.00 | 0.00 | 0.00 | 58 | 1043.4 |
| 20260903192838 | 80 | 243 | 0.0 | 0.0 | 0.00 | 0.00 | 0.00 | 58 | 1017.0 |
| 20260903191833 | 79 | 242 | 0.0 | 0.0 | 0.00 | 0.00 | 0.00 | 61 | 1304.2 |
| 20260903190834 | 79 | 242 | 0.0 | 0.0 | 0.00 | 0.00 | 0.00 | 61 | 1040.9 |
| 20260903185833 | 79 | 242 | 0.0 | 0.0 | 0.00 | 0.00 | 0.00 | 60 | 742.9 |
| 20260903184827 | 80 | 242 | 0.0 | 0.0 | 0.00 | 0.00 | 0.00 | 58 | 988.7 |
| 20260903183828 | 80 | 242 | 0.0 | 0.0 | 0.00 | 0.00 | 0.00 | 58 | 1214.0 |
| 20260903183258 | 80 | 242 | 0.0 | 1.0 | 0.00 | 0.00 | 0.00 | 58 | 1087.0 |
| 20260903181825 | 81 | 242 | 1.0 | 5.0 | 0.00 | 0.00 | 0.00 | 57 | 1054.0 |
| 20260903180825 | 83 | 250 | 0.0 | 0.0 | 0.00 | 0.00 | 0.00 | 55 | 1058.8 |
| 20260903175825 | 83 | 250 | 0.0 | 0.0 | 0.00 | 0.00 | 0.00 | 53 | 587.9 |
| 20260903174827 | 84 | 250 | 0.0 | 0.0 | 0.00 | 0.00 | 0.00 | 51 | 1286.3 |
| 20260903173825 | 84 | 250 | 0.0 | 0.0 | 0.00 | 0.00 | 0.00 | 51 | 644.3 |
| 20260903172825 | 84 | 250 | 0.0 | 0.0 | 0.00 | 0.00 | 0.00 | 51 | 520.4 |
| 20260903171824 | 84 | 250 | 0.0 | 0.0 | 0.00 | 0.00 | 0.00 | 52 | 523.9 |
| 20260903170823 | 85 | 250 | 0.0 | 0.0 | 0.00 | 0.00 | 0.00 | 54 | 925.9 |
| 20260903165823 | 85 | 250 | 0.0 | 0.0 | 0.00 | 0.00 | 0.00 | 53 | 1165.6 |
| 20260903164823 | 86 | 250 | 0.0 | 0.0 | 0.00 | 0.00 | 0.00 | 52 | 762.0 |
| 20260903163817 | 86 | 250 | 0.0 | 0.0 | 0.00 | 0.00 | 0.00 | 52 | 1126.5 |
| 20260903162817 | 85 | 250 | 0.0 | 3.0 | 0.00 | 0.00 | 0.00 | 51 | 511.1 |
| 20260903161815 | 86 | 250 | 0.0 | 1.0 | 0.00 | 0.00 | 0.00 | 51 | 696.7 |
| 20260903160815 | 85 | 250 | 0.0 | 2.0 | 0.00 | 0.00 | 0.00 | 49 | 1187.9 |
| 20260903155814 | 86 | 250 | 0.0 | 3.0 | 0.00 | 0.00 | 0.00 | 48 | 1019.1 |
| 20260903155254 | 86 | 250 | 0.0 | 4.0 | 0.00 | 0.00 | 0.00 | 46 | 726.1 |
| 20260903153817 | 87 | 247 | 0.0 | 4.0 | 0.00 | 0.00 | 0.00 | 44 | 1229.2 |
| 20260903153303 | 87 | 252 | 0.0 | 2.0 | 0.00 | 0.00 | 0.00 | 43 | 994.5 |
| 20260903151817 | 87 | 252 | 0.0 | 4.0 | 0.00 | 0.00 | 0.00 | 41 | 846.3 |
| 20260903150817 | 88 | 252 | 1.0 | 6.0 | 0.00 | 0.00 | 0.00 | 41 | 445.8 |
| 20260903150249 | 89 | 248 | 1.0 | 6.0 | 0.00 | 0.00 | 0.00 | 38 | 1211.8 |
| 20260903144813 | 89 | 247 | 1.0 | 9.0 | 0.00 | 0.00 | 0.00 | 37 | 628.6 |
| 20260903143813 | 89 | 205 | 1.0 | 5.0 | 0.00 | 0.00 | 0.00 | 37 | 669.9 |
| 20260903142812 | 89 | 222 | 2.0 | 8.0 | 0.00 | 0.00 | 0.00 | 40 | 1045.6 |
| 20260903141813 | 90 | 212 | 1.0 | 5.0 | 0.00 | 0.00 | 0.00 | 38 | 718.9 |
| 20260903140813 | 90 | 228 | 0.0 | 3.0 | 0.00 | 0.00 | 0.00 | 38 | 997.7 |
| 20260903140247 | 90 | 229 | 1.0 | 5.0 | 0.00 | 0.00 | 0.00 | 37 | 1256.0 |
| 20260903134814 | 90 | 242 | 1.0 | 3.0 | 0.00 | 0.00 | 0.00 | 38 | 581.8 |
| 20260903133812 | 90 | 234 | 0.0 | 0.0 | 0.00 | 0.00 | 0.00 | 36 | 1308.9 |
| 20260903132813 | 90 | 234 | 0.0 | 0.0 | 0.00 | 0.00 | 0.00 | 37 | 460.6 |
| 20260903132258 | 89 | 275 | 0.0 | 0.0 | 0.00 | 0.00 | 0.00 | 37 | 631.0 |
| 20260903130813 | 89 | 277 | 0.0 | 0.0 | 0.00 | 0.00 | 0.00 | 36 | 858.5 |
| 20260903125812 | 88 | 246 | 0.0 | 0.0 | 0.00 | 0.00 | 0.00 | 37 | 595.0 |
| 20260903124813 | 89 | 182 | 0.0 | 0.0 | 0.00 | 0.00 | 0.00 | 38 | 1163.4 |
| 20260903123812 | 89 | 182 | 0.0 | 0.0 | 0.00 | 0.00 | 0.00 | 37 | 1123.8 |
| 20260903122813 | 88 | 229 | 0.0 | 0.0 | 0.00 | 0.00 | 0.00 | 37 | 705.9 |
| 20260903121812 | 87 | 246 | 0.0 | 0.0 | 0.00 | 0.00 | 0.00 | 38 | 747.7 |
| 20260903120813 | 88 | 236 | 0.0 | 0.0 | 0.00 | 0.00 | 0.00 | 39 | 707.9 |
| 20260903115813 | 88 | 290 | 0.0 | 0.0 | 0.00 | 0.00 | 0.00 | 39 | 440.0 |
| 20260903114813 | 89 | 249 | 0.0 | 0.0 | 0.00 | 0.00 | 0.00 | 40 | 1055.2 |
| 20260903113813 | 88 | 146 | 0.0 | 0.0 | 0.00 | 0.00 | 0.00 | 38 | 919.2 |
| 20260903113738 | 88 | 199 | 0.0 | 0.0 | 0.00 | 0.00 | 0.00 | 38 | 984.3 |
| 20260903111813 | 88 | 205 | 0.0 | 0.0 | 0.00 | 0.00 | 0.00 | 37 | 749.3 |
| 20260903110813 | 87 | 355 | 0.0 | 0.0 | 0.00 | 0.00 | 0.00 | 39 | 653.5 |
| 20260903105813 | 88 | 355 | 0.0 | 0.0 | 0.00 | 0.00 | 0.00 | 39 | 568.8 |
| 20260903104813 | 88 | 355 | 0.0 | 0.0 | 0.00 | 0.00 | 0.00 | 39 | 1021.6 |
| 20260903103813 | 88 | 0 | 0.0 | 0.0 | 0.00 | 0.00 | 0.00 | 39 | 587.8 |
| 20260903102812 | 87 | 109 | 0.0 | 0.0 | 0.00 | 0.00 | 0.00 | 40 | 1062.0 |
| 20260903101813 | 86 | 44 | 0.0 | 0.0 | 0.00 | 0.00 | 0.00 | 40 | 768.1 |
| 20260903100813 | 87 | 0 | 0.0 | 0.0 | 0.00 | 0.00 | 0.00 | 41 | 1144.6 |
| 20260903095812 | 87 | 0 | 0.0 | 0.0 | 0.00 | 0.00 | 0.00 | 43 | 1212.8 |